Weather History for KFVE - August, 2014

Change the Weather History Date:

Wednesday, August 13, 2014

  Actual Average Record
Temperature  
Mean Temperature 62 °F 63 °F  
Max Temperature 69 °F 73 °F 90 °F (2002)
Min Temperature 55 °F 54 °F 42 °F (1998)
Degree Days  
Heating Degree Days 3    
Month to date heating degree days 13  
Since 1 July heating degree days 63  
Cooling Degree Days 0    
Month to date cooling degree days 13  
Year to date cooling degree days 113  
Growing Degree Days 12 (Base 50)    
Moisture  
Dew Point 53 °F    
Average Humidity 76    
Maximum Humidity 90    
Minimum Humidity 58    
Precipitation  
Precipitation 0.05 in 0.12 in 2.61 in (2004)
Month to date precipitation 1.04 1.62  
Year to date precipitation 21.87 19.68  
Sea Level Pressure  
Sea Level Pressure 30.01 in    
Wind  
Wind Speed 10 mph (SSE)    
Max Wind Speed 21 mph    
Max Gust Speed 27 mph    
Visibility 10 miles    
Events Rain    
T = Trace of Precipitation, MM = Missing Value Source: NWS Daily Summary

Daily Weather History Graph

Daily Weather History Graph

Search for Another Location

Airport or City:

Trip Planner

Search our weather history database for the weather conditions in past years. The results will help you decide how hot, cold, wet, or windy it might be!

Date:

Astronomy

Aug. 13, 2014 Rise Set
Actual Time 5:27 AM EDT 7:48 PM EDT
Civil Twilight 4:53 AM EDT 8:21 PM EDT
Nautical Twilight 4:10 AM EDT 9:04 PM EDT
Astronomical Twilight 3:22 AM EDT 9:52 PM EDT
Moon 9:11 PM EDT (8/13) 9:08 AM EDT (8/13)
Length of Visible Light 15h 28m
Length of Day
14h 21m
Waning Gibbous, 88% of the Moon is Illuminated
Aug 13
Waning Gibbous
Aug 17
Last Quarter
Aug 25
New
Sep 2
First Quarter
Sep 8
Full

Hourly Weather History & Observations

Time (EDT) Temp. Dew Point Humidity Pressure Visibility Wind Dir Wind Speed Gust Speed Precip Events Conditions
12:53 AM 62.1 °F 53.1 °F 72% 30.09 in 10.0 mi South 8.1 mph - N/A   Clear
1:53 AM 60.8 °F 51.8 °F 72% 30.09 in 10.0 mi SSE 9.2 mph - N/A   Clear
2:53 AM 57.9 °F 52.0 °F 81% 30.07 in 10.0 mi SE 9.2 mph - N/A   Clear
3:53 AM 57.0 °F 53.1 °F 87% 30.06 in 10.0 mi SE 9.2 mph - N/A   Clear
4:53 AM 57.0 °F 53.1 °F 87% 30.05 in 10.0 mi SE 10.4 mph - N/A   Clear
5:53 AM 55.9 °F 52.0 °F 87% 30.05 in 10.0 mi SE 10.4 mph - N/A   Clear
6:53 AM 57.0 °F 53.1 °F 87% 30.06 in 10.0 mi SE 9.2 mph - N/A   Clear
8:17 AM 60.8 °F 55.4 °F 82% 30.06 in 10.0 mi SSE 8.1 mph - N/A   Mostly Cloudy
9:53 AM 63.0 °F 55.0 °F 75% 30.06 in 10.0 mi SE 11.5 mph - N/A   Clear
10:53 AM 66.2 °F 55.4 °F 68% 30.05 in 10.0 mi SE 12.7 mph - N/A   Clear
11:53 AM 66.0 °F 53.1 °F 63% 30.03 in 10.0 mi SSE 11.5 mph - N/A   Clear
12:53 PM 69.1 °F 54.0 °F 58% 30.01 in 10.0 mi SSE 13.8 mph 25.3 mph N/A   Clear
1:53 PM 68.0 °F 54.0 °F 61% 29.99 in 10.0 mi SSE 17.3 mph 24.2 mph N/A   Clear
2:53 PM 68.0 °F 55.0 °F 63% 29.98 in 10.0 mi SSE 13.8 mph 19.6 mph N/A   Partly Cloudy
3:53 PM 68.0 °F 53.6 °F 60% 29.97 in 10.0 mi SSE 18.4 mph 25.3 mph N/A   Clear
4:53 PM 66.0 °F 54.0 °F 65% 29.96 in 10.0 mi SSE 10.4 mph - N/A   Scattered Clouds
5:53 PM 62.1 °F 55.0 °F 78% 29.97 in 10.0 mi South 11.5 mph 23.0 mph 0.00 in Rain Light Rain
6:53 PM 59.0 °F 55.9 °F 90% 29.97 in 10.0 mi South 8.1 mph - 0.01 in   Overcast
7:53 PM 57.0 °F 51.1 °F 81% 29.96 in 10.0 mi SSE 8.1 mph - 0.01 in Rain Light Rain
8:53 PM 55.9 °F 50.0 °F 80% 29.94 in 10.0 mi South 6.9 mph - 0.00 in Rain Light Rain
9:53 PM 55.0 °F 50.0 °F 83% 29.92 in 10.0 mi East 6.9 mph - 0.00 in   Overcast
10:53 PM 55.9 °F 52.0 °F 87% 29.91 in 10.0 mi SE 4.6 mph - N/A   Overcast